{"data":{"norad_id":50001,"intl_designator":"2021-123A","name":"EXPRESS AMU-7","alt_names":[],"object_type":"PAYLOAD","status":"ACTIVE","operator":null,"country":"CIS","launch_date":"2021-12-13","launch_site_code":"TYMSC","launch_vehicle":null,"mission":null,"orbit_class":"UNKNOWN","rcs_meters":null,"size_class":null,"mass_kg":null,"dimensions":null,"purposes":["comms"],"wikipedia_slug":null,"has_3d_model":false,"image_url":null,"decayed_at":null,"tle_current":{"epoch":"2026-09-20T03:55:16.662720Z","epoch_age_seconds":51097,"freshness":"FRESH","line1":"1 50001U 21123A   26263.16338730 -.00000247  00000+0  00000+0 0  9997","line2":"2 50001   0.0264 251.5296 0000356 207.7687 103.6011  1.00271712 17495","mean_motion":1.00271712,"eccentricity":3.56e-5,"inclination_deg":0.0264,"raan_deg":251.5296,"arg_perigee_deg":207.7687,"mean_anomaly_deg":103.6011,"bstar":0,"rev_number":1749,"period_min":1436.0979495393,"perigee_km":35785.114360567,"apogee_km":35788.116490939,"semimajor_km":42164.752425753,"source":"CELESTRAK","updated_at":"2026-09-20T09:00:35.301448Z"}}}